Location: Spondin
(51.8528°N, 111.6118°W)
Time: 17:23:05
(UTC+00:00)

Vanguard 2 Rocket - Pass Details

Date: 26 May 2022
Orbit: 553 x 3323 km, 32.9° (Epoch: 02 July)

Event Time Altitude Azimuth Distance (km) Brightness Sun altitude
Rises 02:03:03 0° 265° (W) 6,117 12.4 10.6°
Reaches altitude 10° 02:09:48 10° 247° (WSW) 4,462 11.2 9.6°
Maximum altitude 02:15:28 15° 218° (SW) 3,453 10.1 8.8°
Drops below altitude 10° 02:19:55 10° 186° (S) 3,332 9.6 8.2°
Sets 02:23:45 0° 163° (SSE) 3,847 9.7 7.7°
